Theta_e
293 294 294 295 294 292 293 292 293 293 295 294 291 290 293 292 282 283 290 294 293 295 298 300 301 302 302 303 304 305 307 308 308 309 309 306 304 305 305 305 305 305 309 312 312 314 315 315 314 315 316 316 316 316 317 318 319 320 320 319 318 319 318 317 318 317 319 319 318 317 317 318 317 317 317 318 317 318 319 318 320 319 318 318 317 315 313
293 292 293 294 293 293 292 293 292 294 294 293 293 293 294 294 292 295 295 293 290 293 295 300 301 303 303 302 303 303 302 304 304 300 297 297 297 296 296 297 297 298 298 298 299 303 308 311 313 316 316 316 316 316 317 318 320 321 320 319 319 318 318 318 319 319 319 319 319 319 318 316 317 317 317 318 317 317 319 318 317 318 319 319 318 318 317
290 292 292 293 292 292 292 293 294 294 294 294 294 292 293 294 293 294 292 289 288 293 296 297 298 298 297 295 293 294 295 295 296 295 294 294 294 295 295 296 296 296 297 297 298 298 299 300 301 301 303 314 317 317 317 318 319 320 320 319 318 318 318 319 318 319 319 320 320 319 319 318 318 319 318 318 317 317 317 316 315 315 316 316 317 317 316
283 291 291 291 292 291 290 290 292 292 290 288 291 288 293 291 289 290 290 286 285 292 294 293 294 294 293 291 292 292 292 293 293 292 292 292 293 293 294 295 295 295 296 296 296 297 298 299 299 300 301 302 304 310 317 318 318 320 319 317 317 318 318 318 319 319 318 318 319 319 320 320 318 318 319 318 317 318 317 317 316 315 314 314 314 314 315
283 289 291 290 289 287 284 285 290 293 292 292 293 296 296 294 292 286 285 285 291 292 293 291 291 291 291 291 291 291 292 292 292 291 292 292 293 293 294 294 295 295 295 295 295 296 297 297 298 300 301 301 300 301 302 308 318 317 318 316 316 317 318 318 318 318 318 318 318 318 318 319 318 318 317 318 317 317 317 317 316 315 313 313 312 313 314
283 289 289 290 282 275 280 291 294 295 292 291 290 290 293 294 293 290 291 290 293 293 293 291 289 289 290 291 293 294 292 290 290 291 292 292 293 294 294 295 295 295 296 295 295 296 297 298 298 299 301 300 300 301 302 304 305 306 305 304 304 305 307 311 313 315 316 316 316 316 317 317 317 317 317 316 316 315 314 314 314 313 313 312 312 313 314
282 285 286 281 275 277 288 294 296 297 295 295 293 293 295 294 294 292 289 289 290 292 292 291 290 290 291 291 291 293 295 294 292 291 291 292 293 293 294 294 295 295 295 295 295 295 296 298 298 299 299 300 300 300 301 301 303 303 302 302 302 302 302 303 304 306 307 308 310 312 315 316 317 315 314 313 314 312 311 312 312 310 310 310 310 311 312
284 283 283 276 277 286 292 295 293 296 296 294 292 290 292 295 293 290 287 288 289 289 289 290 291 290 291 291 292 292 293 294 293 292 292 294 295 294 295 295 295 296 296 295 295 295 297 297 298 299 298 299 300 299 300 300 301 302 301 301 301 301 301 301 301 302 303 304 305 306 306 306 307 312 313 315 314 312 312 311 310 310 309 309 309 309 310
282 282 282 281 287 287 287 286 288 288 285 288 287 282 286 292 291 289 288 288 288 288 289 290 291 292 292 290 291 295 295 294 294 295 295 296 296 296 296 296 296 297 298 297 297 297 296 297 297 298 299 300 299 299 299 300 301 301 300 300 300 300 301 301 301 300 301 303 304 304 305 305 305 305 306 311 312 313 312 311 311 311 312 312 310 308 308
284 282 281 282 281 278 282 288 291 293 294 295 293 289 285 293 292 291 289 288 288 289 290 291 292 294 290 286 287 294 296 297 296 296 296 295 295 297 297 297 298 298 298 297 297 296 296 297 298 299 298 299 299 298 299 299 301 300 300 299 301 301 300 300 300 300 300 302 303 303 303 304 304 304 304 304 307 311 311 311 311 312 313 313 312 311 309
283 282 279 278 276 279 286 288 290 292 294 294 294 288 283 291 292 292 290 289 290 290 291 292 293 291 285 285 288 293 296 297 298 296 296 297 297 297 295 295 295 296 298 299 298 297 295 295 296 298 299 299 299 298 299 299 299 298 298 298 299 300 300 300 300 300 300 301 301 302 302 302 303 303 303 303 304 305 305 306 310 313 313 313 313 312 311
283 281 279 277 281 281 287 291 292 296 294 297 290 280 280 292 294 293 291 290 290 291 293 294 293 288 284 285 289 294 296 297 297 297 296 295 295 295 294 295 296 296 298 296 295 295 295 295 296 297 297 297 298 297 298 298 297 297 297 298 299 299 300 300 300 300 301 301 301 301 301 301 301 301 302 302 303 304 304 305 305 304 306 312 313 313 312
283 283 280 282 283 288 291 290 292 292 295 294 282 278 284 293 294 294 293 292 293 295 294 293 288 290 291 292 293 295 296 295 295 295 295 294 294 293 294 294 296 296 296 296 295 296 296 297 298 298 298 297 296 296 297 296 296 297 297 298 298 298 299 299 300 300 300 300 300 301 302 301 301 301 301 301 302 303 303 304 303 303 304 303 306 308 311
281 282 280 280 282 286 290 292 294 293 290 282 280 290 297 295 293 293 293 292 293 293 292 292 292 292 293 294 294 293 293 292 292 293 294 294 294 294 294 294 294 294 295 295 296 296 296 297 297 297 297 296 295 295 296 295 295 297 298 298 298 297 298 298 298 299 299 299 300 301 301 300 299 299 300 300 301 301 300 300 300 300 301 303 304 303 305
282 281 278 277 275 285 293 294 290 291 283 284 292 294 295 295 293 292 291 292 292 293 291 292 292 291 291 291 291 291 292 292 292 292 292 292 292 292 292 292 293 294 294 294 294 294 295 296 295 295 295 294 293 294 294 295 296 297 297 297 297 297 297 297 298 298 298 298 298 300 299 299 299 298 298 298 299 299 299 299 300 300 300 302 303 303 302
278 277 276 277 284 287 292 290 282 287 290 293 293 293 290 293 292 291 291 292 293 293 292 291 291 291 291 291 291 291 291 291 292 292 292 292 293 293 293 293 293 294 293 294 293 293 294 294 294 294 294 293 293 293 292 294 295 295 295 295 295 295 295 296 296 297 297 298 298 298 298 298 298 297 297 297 298 298 298 298 299 298 299 300 301 301 302
281 280 283 288 290 290 291 292 291 291 292 294 294 293 292 291 291 292 291 291 291 292 292 292 292 291 291 291 292 291 290 291 291 291 292 292 292 292 292 292 293 293 293 292 292 293 293 293 294 293 293 292 292 291 293 294 294 294 294 294 294 294 294 295 294 296 296 296 296 297 297 297 296 296 295 296 296 296 296 296 296 296 297 299 299 300 300
290 291 291 291 290 289 290 292 292 291 292 293 293 292 290 291 292 293 293 294 293 293 293 291 291 291 290 291 291 291 290 290 292 293 293 293 293 292 292 291 292 292 293 292 292 292 292 293 293 293 293 292 291 292 294 294 294 294 294 293 293 293 293 293 293 294 294 294 294 295 295 295 295 295 295 295 294 295 295 295 295 295 295 295 296 297 298
285 280 289 289 288 289 289 289 291 291 292 292 292 292 291 291 292 292 293 293 293 293 293 293 292 292 291 290 290 290 291 291 291 292 292 292 292 291 291 292 293 293 293 292 292 291 291 292 292 293 293 293 293 293 294 294 294 294 293 293 292 292 292 292 292 293 292 293 292 293 293 293 294 294 294 294 294 293 293 293 294 295 294 294 294 294 295
283 284 288 289 290 290 292 290 288 288 290 291 291 291 292 292 292 292 292 293 292 292 290 291 291 291 291 291 290 291 291 291 291 291 291 291 291 291 292 293 293 292 291 291 291 291 291 292 292 293 294 293 294 294 294 294 293 293 293 292 292 292 292 292 292 292 292 289 291 292 292 292 292 293 293 293 293 292 292 292 292 292 293 293 293 293 293
286 289 290 290 290 289 289 290 289 289 290 290 291 291 291 291 291 291 292 292 291 291 290 290 290 289 290 290 290 291 290 290 290 291 291 291 290 291 291 291 291 291 291 290 291 291 292 292 292 292 292 293 294 293 292 292 292 292 292 292 292 292 292 291 292 292 293 292 291 291 291 292 292 291 291 292 292 292 292 292 291 291 291 291 292 293 293
283 283 286 289 284 283 287 289 289 290 292 292 292 292 291 291 290 290 290 290 290 290 290 290 290 289 289 290 290 290 290 290 290 291 290 291 291 292 292 293 292 292 292 292 292 292 294 295 293 292 292 292 292 292 292 292 292 291 292 292 292 292 292 292 292 291 291 290 291 291 290 290 290 291 290 291 291 290 291 292 291 290 290 290 292 292 292
281 288 291 293 290 289 290 291 291 291 292 292 292 292 291 292 292 292 291 290 290 290 290 291 290 289 289 289 290 289 289 290 291 291 290 291 292 292 293 293 293 292 292 294 294 293 294 294 294 294 293 293 292 292 292 292 292 292 293 292 291 291 291 291 290 291 290 290 290 290 290 290 290 289 290 291 291 291 290 291 290 290 291 290 290 290 290
289 292 292 292 289 288 291 293 292 293 294 292 290 290 290 290 291 292 291 290 289 288 288 289 290 289 289 289 289 288 289 289 289 289 290 290 291 292 293 292 292 292 292 292 292 293 293 292 293 293 293 293 292 292 292 293 293 293 293 292 291 291 291 291 291 289 290 290 290 291 291 291 291 291 290 289 290 291 291 290 291 290 290 290 290 290 290
288 293 293 292 291 292 293 292 292 293 293 291 289 288 288 288 289 289 288 288 288 288 288 288 289 289 289 289 289 288 288 288 289 289 289 290 290 291 293 292 291 291 290 291 293 293 292 291 290 291 292 293 292 291 292 293 294 293 293 291 290 291 292 292 291 290 290 291 292 292 292 292 292 292 291 290 289 289 291 291 291 290 290 290 291 290 289
292 292 293 293 293 293 293 292 290 290 291 291 289 289 291 292 290 290 288 288 288 288 288 288 288 288 289 288 288 287 288 288 289 289 289 289 291 293 293 292 291 291 292 292 292 291 291 291 291 292 291 292 291 291 292 293 293 293 293 292 291 291 291 291 292 292 291 291 292 292 292 292 292 292 291 291 291 290 290 290 290 291 291 291 290 290 290
292 293 292 289 288 288 291 289 287 289 289 291 290 289 288 288 290 289 288 288 288 288 288 288 288 288 288 288 289 288 288 288 288 289 289 290 292 292 292 292 292 292 292 292 290 290 290 291 291 291 291 291 291 291 291 292 291 291 292 292 292 290 289 290 290 290 291 291 291 291 290 291 291 291 291 290 289 288 288 288 289 288 288 289 290 291 290
289 289 290 286 285 287 287 289 290 291 291 290 289 288 288 288 287 288 287 287 287 288 289 288 288 288 289 289 290 289 290 290 288 287 288 289 291 292 291 290 290 290 290 290 290 290 290 291 291 291 291 292 291 292 292 291 291 291 292 293 291 290 291 292 291 289 288 289 288 288 289 290 290 289 289 288 288 289 289 289 289 288 287 287 289 290 291
288 288 288 289 289 289 289 288 288 288 288 288 289 289 288 287 286 286 288 288 288 287 288 288 289 289 289 289 289 288 288 288 288 288 288 289 290 289 289 289 289 289 289 290 290 290 290 291 291 291 291 291 291 292 292 291 289 291 291 293 292 292 292 291 291 290 289 288 287 287 287 286 288 290 289 289 288 289 289 289 288 288 287 287 288 290 291
290 288 288 288 288 288 287 287 286 286 288 289 289 287 288 287 286 286 287 287 287 286 287 287 287 289 288 288 288 287 285 284 284 284 285 287 288 288 287 288 288 287 288 288 288 288 290 291 292 292 291 291 291 291 292 290 290 290 290 290 290 290 291 290 290 290 288 287 289 287 287 288 289 289 288 288 288 287 287 287 287 286 285 286 287 288 289
291 292 291 291 290 287 286 287 287 287 288 288 287 286 286 287 287 287 288 288 287 287 287 288 289 288 287 286 285 284 284 283 283 282 283 285 285 283 284 284 284 283 284 285 288 289 290 291 291 291 291 291 291 292 292 291 290 290 290 290 289 288 289 288 288 288 289 289 288 289 289 288 288 288 286 286 286 287 287 287 287 286 286 286 286 287 289
289 290 290 288 288 287 287 287 286 287 287 287 286 285 286 286 286 287 287 287 288 287 287 288 287 284 283 284 283 282 280 278 279 281 283 283 282 281 280 281 283 284 285 286 287 288 290 290 290 290 291 291 292 292 292 290 290 290 291 289 289 289 289 288 286 287 288 288 289 289 288 288 288 288 288 287 287 286 287 287 287 287 286 286 287 289 288
287 287 287 288 288 288 288 289 287 286 286 286 285 286 287 287 287 287 288 287 287 288 287 287 285 284 282 280 279 278 277 278 280 280 280 280 278 278 277 280 282 284 285 287 288 289 290 290 290 290 290 291 291 292 292 291 290 289 289 289 290 290 289 288 287 288 289 289 289 289 289 288 288 289 288 287 287 287 287 287 287 286 286 286 286 287 287
288 286 287 289 288 285 285 286 287 286 286 286 286 286 287 287 288 287 286 286 287 287 286 285 284 282 279 278 274 274 274 276 279 278 276 276 277 277 278 281 283 285 286 288 289 290 290 290 289 289 290 290 290 291 292 291 290 289 289 289 290 290 290 288 288 288 288 289 289 289 290 288 287 286 286 286 285 285 285 284 284 284 284 285 286 287 287
291 291 291 291 290 288 288 288 286 286 285 284 285 286 287 287 287 286 287 286 287 286 286 285 282 279 278 276 275 274 274 275 275 275 275 276 276 278 279 282 284 286 287 288 289 289 290 288 288 287 287 288 290 291 291 290 289 289 290 290 289 289 289 289 289 288 289 289 289 289 289 289 288 287 287 287 286 286 285 284 284 284 284 285 286 286 286
291 291 291 291 290 290 288 287 288 288 287 285 284 284 286 287 286 286 286 286 287 287 285 281 280 279 278 275 275 274 275 275 274 274 273 275 277 278 280 281 282 284 284 286 288 288 290 287 286 285 286 287 288 292 290 288 288 289 290 289 288 288 288 287 288 289 289 290 289 289 288 288 288 288 288 287 287 287 286 285 285 285 285 286 286 286 287
291 291 291 291 291 289 288 288 288 287 288 287 285 285 286 287 287 288 287 287 287 287 285 283 282 280 279 279 278 278 277 277 277 277 278 276 278 279 280 280 281 281 281 283 284 286 288 286 286 286 287 288 290 291 287 286 287 288 290 290 288 288 287 287 287 287 288 289 289 289 288 288 289 289 288 288 287 287 287 287 287 287 286 286 287 287 287
290 291 289 291 291 289 288 289 289 288 288 287 288 287 287 286 285 287 287 287 288 286 285 285 283 283 281 279 277 278 277 275 276 276 275 277 279 280 279 280 281 280 282 283 283 285 287 286 286 287 288 290 291 289 285 285 286 287 288 288 287 288 288 287 286 286 286 288 288 289 288 288 288 288 288 288 288 287 287 287 287 287 287 287 287 287 287
288 289 289 290 290 288 288 289 289 288 289 288 287 287 287 288 287 287 287 288 289 288 287 286 285 284 283 282 281 280 279 279 278 277 277 278 279 280 281 282 283 283 284 283 284 285 286 285 285 285 287 288 289 289 287 285 285 286 287 288 289 287 286 287 288 288 288 288 288 288 288 288 288 287 287 287 288 287 287 287 287 287 288 288 287 287 288
289 290 290 289 288 288 289 288 288 288 289 288 288 287 287 287 287 287 287 288 288 288 288 287 287 285 284 284 283 282 282 282 281 279 279 279 280 279 281 283 285 286 287 286 285 284 286 286 286 286 285 285 287 285 285 285 285 285 286 289 288 286 286 286 287 288 289 289 288 287 288 287 287 286 286 287 287 287 287 288 288 288 288 288 288 288 287
290 292 291 291 289 289 288 288 288 289 289 289 288 288 289 288 288 287 287 287 287 288 288 287 285 285 286 286 286 285 284 283 283 282 282 281 281 281 281 281 285 287 288 286 284 284 285 287 285 283 283 283 283 284 282 283 283 285 286 288 288 286 286 285 286 288 288 288 288 288 288 288 287 286 285 286 286 287 288 288 288 288 288 287 287 287 286
290 291 292 292 291 290 290 290 290 289 289 289 289 289 290 290 289 288 287 288 288 288 288 287 287 286 285 286 287 286 285 284 283 283 284 283 283 283 283 284 287 286 286 284 284 282 281 284 283 283 281 281 282 284 284 283 283 284 286 288 289 287 287 286 286 287 288 288 288 288 287 287 287 286 286 285 285 286 287 287 288 288 288 287 287 287 286
292 291 290 290 290 290 291 290 289 288 288 288 289 289 289 290 290 289 289 288 288 288 288 287 286 285 285 284 284 285 285 285 285 285 285 286 286 287 286 285 285 282 284 282 283 282 283 283 282 281 283 281 281 284 284 284 285 287 288 288 288 288 287 286 286 286 286 287 287 288 287 286 285 286 286 286 285 285 285 287 287 287 287 287 287 287 287
290 290 291 291 291 292 292 291 290 290 288 288 289 290 290 290 290 290 289 288 288 288 288 288 286 286 285 284 283 281 281 285 284 284 283 283 285 285 286 284 283 283 284 283 282 283 282 282 281 282 284 284 284 284 283 284 286 287 288 287 287 287 287 287 287 286 285 285 286 287 287 287 287 286 285 284 284 284 285 285 286 287 287 287 287 287 286
288 290 291 290 291 291 291 290 292 292 291 291 289 290 290 289 289 289 289 288 288 287 287 288 287 286 285 284 283 284 283 284 286 285 282 281 282 283 285 285 283 282 282 283 282 282 282 282 282 284 284 284 284 284 283 284 285 285 286 286 286 285 286 286 287 286 285 285 284 284 285 286 286 286 285 284 284 284 283 284 285 284 285 285 285 285 286
289 289 291 289 290 290 291 292 293 292 291 291 291 291 289 290 289 289 289 289 289 288 288 288 287 287 286 286 286 286 286 286 285 287 286 285 284 284 285 284 283 283 282 283 282 281 281 284 284 284 284 284 284 282 282 284 285 284 285 284 285 286 285 285 286 286 285 286 284 284 284 285 286 286 286 285 285 285 285 285 284 283 285 284 284 285 285
290 289 289 289 290 291 292 292 292 291 291 289 288 289 290 291 291 290 289 290 290 290 289 289 289 289 288 287 285 284 283 283 284 285 285 284 284 284 284 284 283 283 283 283 282 282 281 281 283 283 284 284 284 282 283 284 285 285 285 285 285 283 284 285 285 285 285 285 285 285 285 286 286 286 285 285 285 285 285 286 286 285 285 285 284 285 285
290 289 289 290 290 291 291 290 290 289 289 288 288 289 289 290 290 291 291 291 289 290 290 289 290 290 288 287 286 286 285 283 282 283 285 284 283 282 281 280 282 283 283 283 283 283 283 284 283 284 284 284 282 282 284 284 284 285 284 284 284 284 283 283 284 283 283 283 284 284 283 282 283 284 285 285 284 284 284 284 284 285 285 285 285 285 284
290 289 290 290 289 289 288 289 288 287 287 289 289 290 291 292 291 291 290 291 292 291 290 290 290 290 289 288 287 285 286 286 285 283 284 283 282 281 281 283 284 284 282 281 282 281 283 284 283 284 284 284 280 283 283 282 283 283 283 282 282 282 282 282 283 283 283 283 283 282 282 283 282 283 282 283 283 283 283 283 282 283 283 284 284 284 284
290 290 288 288 288 288 288 287 287 287 289 288 288 289 290 290 288 288 287 287 288 289 291 291 290 290 291 288 285 286 286 286 287 287 286 285 285 283 281 281 281 283 283 282 285 282 283 283 284 283 283 280 281 283 284 283 283 282 282 283 282 281 283 284 285 285 284 284 283 283 283 282 281 282 282 282 282 283 283 283 282 284 285 284 284 284 283
289 288 288 288 289 289 290 289 288 288 288 288 289 288 290 288 288 287 288 288 288 286 286 288 290 292 292 291 290 286 286 286 287 287 286 286 285 284 283 282 282 282 281 282 283 282 280 280 280 282 282 282 283 283 282 282 282 283 284 283 282 282 282 283 283 282 282 283 282 282 283 282 282 282 281 281 281 281 282 284 284 284 284 284 284 284 284
290 290 290 289 289 289 290 290 290 289 289 288 287 287 288 287 289 288 288 288 287 286 285 286 287 289 290 290 290 290 286 285 285 284 286 286 285 283 284 284 282 282 282 281 282 282 280 281 283 283 284 283 282 281 284 284 283 281 281 282 283 281 282 281 282 283 283 283 283 282 282 283 282 281 282 281 281 282 281 281 282 283 284 284 284 284 284
Wind_Speed
3 5 6 4 3 2 1 6 6 12 11 13 9 3 6 4 3 6 3 8 8 3 5 4 7 9 10 11 11 10 9 9 9 8 11 13 15 15 15 14 12 12 9 7 5 5 6 6 9 8 6 6 5 6 4 5 6 4 3 2 1 1 2 5 6 6 5 4 4 3 1 1 1 2 1 2 3 3 4 2 3 4 3 3 2 0 2
2 2 6 6 6 2 3 2 5 9 11 8 6 3 9 9 8 14 13 15 13 8 6 7 9 9 9 9 9 10 10 10 12 15 15 12 13 14 13 12 12 13 12 13 13 13 13 10 8 6 4 5 3 3 3 1 4 5 4 1 4 5 3 2 3 3 2 1 2 1 1 1 1 2 1 1 2 4 4 4 3 4 4 4 5 5 5
2 3 6 6 7 6 1 2 5 9 8 9 5 4 7 9 12 10 11 16 11 6 5 10 9 11 12 15 16 13 12 14 14 15 13 13 15 13 13 12 13 13 14 15 16 17 15 14 13 12 11 3 3 4 4 4 5 5 3 2 4 7 4 1 2 4 4 0 1 1 1 1 3 3 3 1 2 3 3 3 3 3 4 4 4 4 4
4 2 3 5 7 7 7 9 8 5 6 6 3 3 0 6 6 7 8 9 5 3 6 12 11 12 15 13 11 11 11 12 13 14 12 13 14 15 13 12 12 13 13 13 13 12 12 13 13 11 11 13 12 8 2 7 7 6 6 5 6 5 6 2 2 2 2 3 1 1 1 2 2 4 6 3 2 2 3 3 2 2 2 3 3 3 3
3 13 6 5 7 6 4 6 7 6 3 9 8 7 7 5 10 7 4 6 4 3 1 14 11 11 12 12 10 10 11 11 12 12 11 11 12 12 12 12 11 10 10 10 10 10 10 10 10 10 10 13 12 12 12 5 3 6 3 3 5 7 7 7 7 5 3 4 4 2 2 4 6 8 4 2 1 0 1 1 1 1 2 3 3 3 3
3 6 12 3 4 3 1 4 8 8 4 8 10 4 5 3 2 6 8 9 5 6 8 14 8 10 9 7 7 7 7 9 10 10 9 9 10 11 11 10 9 8 8 8 9 9 9 9 8 9 12 11 10 10 12 15 12 11 11 12 11 10 7 5 3 3 7 9 9 10 11 10 9 4 2 2 1 1 1 1 0 0 0 2 2 3 3
2 6 7 7 1 1 2 9 9 10 12 12 11 7 8 14 17 16 14 12 11 8 9 11 10 11 11 10 9 10 10 9 9 10 9 9 10 11 10 10 9 9 9 10 12 12 11 9 10 12 13 11 11 13 12 11 9 10 11 12 11 10 9 9 8 7 7 4 3 3 3 5 6 4 3 3 3 2 2 1 1 2 3 2 2 3 4
2 3 2 2 2 0 5 3 11 12 6 6 9 11 9 6 11 16 12 10 11 12 11 10 10 12 9 11 10 9 9 8 7 10 9 8 9 12 9 10 10 11 10 9 9 8 7 10 11 11 10 10 11 10 10 10 9 10 10 12 11 11 11 10 11 10 10 8 8 7 7 6 4 0 2 5 5 3 3 3 2 2 3 3 3 2 2
3 2 3 1 1 1 7 5 7 7 3 5 2 4 6 6 7 13 14 12 11 12 12 11 9 9 10 11 8 6 6 5 5 7 7 7 8 7 6 7 6 4 4 7 6 7 8 9 10 9 8 9 9 10 11 11 10 11 11 11 10 10 10 11 10 10 11 8 7 7 7 8 6 5 4 4 3 0 3 3 3 4 5 4 4 4 4
3 4 3 2 0 1 0 2 5 5 3 3 9 4 4 5 7 10 15 15 13 12 10 9 10 6 12 9 4 3 2 4 7 6 6 5 4 4 4 4 4 4 4 4 5 8 9 9 7 7 8 9 9 10 10 10 10 11 11 11 10 10 9 9 10 10 10 9 9 9 8 7 6 6 4 1 1 0 2 3 4 6 6 6 5 4 4
2 3 4 1 1 1 1 6 3 7 4 8 9 5 4 2 7 7 13 12 10 10 10 9 6 2 5 4 3 4 3 4 4 6 5 6 4 3 4 6 6 5 5 5 5 6 8 8 6 5 8 10 10 10 9 10 10 10 10 9 9 9 9 8 9 9 8 8 8 9 9 8 8 8 7 7 4 1 0 1 4 7 6 6 6 5 5
1 2 2 2 2 2 4 6 3 2 6 3 4 4 1 3 5 5 8 10 8 7 6 6 5 8 9 7 6 8 8 7 7 8 7 4 3 3 3 3 3 4 5 9 10 11 10 9 9 9 7 8 9 9 8 8 9 8 8 7 6 6 7 7 7 7 6 6 7 6 6 7 8 8 7 8 8 7 6 6 7 4 4 6 7 7 7
3 4 2 3 2 1 3 5 8 4 2 1 3 3 1 2 8 7 7 7 4 4 4 2 3 4 7 8 7 7 7 7 5 3 3 5 7 8 9 10 8 8 9 9 10 10 8 9 8 7 8 9 8 7 6 7 7 5 4 4 5 5 5 6 7 7 7 7 8 7 6 6 4 5 6 6 6 6 7 8 6 7 6 3 4 7 8
2 2 4 2 1 3 5 8 4 4 1 4 4 1 3 7 10 9 10 9 7 7 9 10 11 11 12 11 8 8 7 7 6 7 7 7 7 7 8 10 8 6 8 8 8 8 8 8 7 7 7 8 6 6 5 6 5 4 5 5 5 5 6 6 6 6 7 8 7 6 7 8 9 8 8 7 6 7 7 6 7 7 6 8 7 5 5
1 2 3 1 1 2 4 5 4 9 5 1 2 5 6 7 9 9 9 9 8 9 12 12 13 13 12 11 10 9 9 9 9 8 8 8 8 8 8 8 7 6 7 8 8 6 6 6 5 5 5 5 4 5 6 6 6 6 6 6 7 7 7 7 7 7 8 8 7 6 7 8 8 7 7 7 8 8 7 7 7 8 8 7 6 7 6
2 2 2 1 1 4 10 8 5 2 1 1 6 9 10 8 6 6 7 8 8 10 11 11 12 11 11 10 10 9 7 7 7 7 7 7 8 8 7 6 5 6 7 7 7 6 6 6 6 6 6 6 6 6 6 5 6 7 7 7 7 8 8 8 9 9 9 9 9 8 8 8 8 7 8 7 7 6 7 6 7 7 7 8 7 7 8
2 2 3 4 7 6 6 7 7 6 7 9 9 11 9 8 7 5 9 8 8 7 9 10 10 10 8 8 8 8 6 6 6 5 5 5 7 6 5 5 4 5 7 6 6 6 6 6 6 5 5 6 6 7 6 6 7 7 7 7 7 7 7 7 8 8 8 8 8 8 8 8 8 7 7 7 7 7 7 7 7 7 7 6 7 8 8
10 9 9 9 8 9 10 10 8 9 10 11 10 11 11 8 8 6 8 8 10 11 10 10 9 7 6 7 7 6 6 5 5 4 4 5 6 4 3 3 3 5 6 6 6 6 6 5 5 5 5 5 6 5 6 7 7 8 8 7 7 7 7 7 7 7 7 7 7 7 7 8 8 7 8 8 7 7 7 7 7 6 7 7 7 8 8
5 3 4 8 9 7 9 9 9 8 8 7 7 9 9 8 8 9 8 9 9 9 8 9 7 7 6 6 5 5 4 5 5 5 4 4 4 4 3 1 4 7 6 5 4 5 5 4 4 4 5 5 6 6 7 7 8 8 7 7 6 5 6 6 6 6 6 6 6 7 6 7 7 7 7 7 7 7 7 8 9 9 9 9 8 7 7
4 5 5 5 5 5 7 7 7 7 6 8 7 7 7 8 7 7 7 6 8 6 7 6 6 5 3 4 4 3 4 4 4 3 4 4 5 4 5 7 6 7 6 4 4 4 5 4 4 4 5 5 6 7 6 7 7 8 8 7 7 7 7 6 5 5 5 8 8 6 6 6 6 7 8 8 7 7 6 7 8 8 9 9 9 8 8
6 8 6 4 5 9 8 7 6 6 6 7 7 8 9 9 9 8 8 7 6 6 7 7 6 6 5 6 3 5 4 4 3 3 2 3 5 5 6 5 7 6 4 4 4 4 4 3 4 5 5 4 5 5 4 4 4 5 5 6 7 7 7 5 5 5 6 6 5 6 6 6 5 4 5 6 7 7 4 4 5 5 7 7 7 8 8
4 3 6 6 5 4 4 5 5 6 6 7 9 8 8 7 7 7 8 6 6 6 6 5 7 6 5 5 5 5 5 4 3 1 2 4 6 5 5 6 6 5 3 2 4 3 3 3 3 3 2 2 3 3 3 3 4 4 3 4 5 5 5 5 5 6 6 6 5 6 6 6 7 7 6 7 6 5 7 11 13 6 2 4 7 8 8
2 4 4 2 7 5 5 5 5 7 6 6 8 8 8 7 6 6 7 5 4 4 4 7 8 6 5 4 5 6 3 2 3 4 5 5 3 5 5 6 5 4 3 3 4 2 1 3 3 2 2 3 4 4 4 3 3 3 3 3 4 5 5 5 5 5 5 5 6 6 6 6 7 7 8 7 8 10 9 10 10 14 15 13 10 8 6
4 0 4 7 7 7 7 5 4 4 3 6 7 5 6 6 7 8 7 5 4 2 4 4 5 6 6 5 5 4 6 6 5 6 5 6 4 3 5 6 5 6 5 4 3 2 1 1 2 4 2 4 3 2 1 1 1 1 2 3 4 5 4 5 5 4 4 5 6 6 6 6 6 7 7 8 9 8 10 11 11 12 13 12 11 11 12
4 5 7 4 5 5 7 9 9 9 10 9 8 8 7 6 7 6 6 5 5 6 5 5 5 6 8 7 6 5 4 3 4 3 5 4 5 3 6 6 6 5 4 3 3 2 1 1 4 3 2 3 3 2 1 1 1 1 1 2 3 4 3 4 4 5 5 5 5 6 6 7 7 7 7 7 8 10 10 9 10 10 11 10 12 12 10
7 7 6 5 5 6 6 8 6 6 7 8 5 4 5 6 6 5 5 4 5 6 7 7 7 6 8 7 5 5 5 4 4 4 4 6 5 1 5 6 5 4 3 3 2 4 4 4 4 3 2 3 3 2 1 0 2 2 3 3 3 1 2 2 4 4 5 5 5 6 6 7 7 7 6 6 8 8 9 9 10 8 6 7 8 9 12
5 4 5 6 4 5 5 7 5 6 8 7 8 6 4 4 6 5 4 4 4 5 6 6 6 6 6 5 5 4 2 2 3 3 3 5 6 5 4 5 6 5 3 2 3 4 5 6 5 1 3 3 3 2 3 1 2 3 3 2 1 2 2 3 3 4 5 5 5 6 6 6 7 7 7 7 7 7 8 9 8 9 9 7 7 11 12
6 8 9 6 3 3 4 5 7 6 6 7 6 6 6 5 5 6 5 5 5 5 5 4 6 5 5 4 5 3 2 2 3 3 4 4 3 4 5 5 5 5 4 4 4 4 5 4 3 3 2 1 2 4 4 4 4 4 4 3 2 2 3 4 4 4 4 4 5 5 5 6 6 6 6 6 6 7 8 8 7 7 7 6 7 10 15
6 7 5 6 5 4 4 3 4 4 5 4 6 7 5 4 4 2 3 6 5 6 6 5 4 5 5 4 5 5 4 4 3 3 3 3 3 4 4 6 6 5 5 6 5 4 4 4 4 3 2 2 3 4 4 4 3 2 1 0 1 2 2 2 3 4 4 4 4 5 5 6 5 5 5 5 5 6 6 6 7 6 7 7 7 9 9
5 4 4 3 4 5 5 1 4 3 2 3 4 4 2 4 5 4 4 5 6 7 5 5 3 1 2 4 5 5 6 5 4 3 3 4 4 4 4 4 5 4 5 5 4 4 4 5 3 4 2 3 3 3 3 2 1 0 0 1 1 1 1 2 3 4 3 5 6 7 7 6 5 5 5 5 6 6 6 6 7 7 7 7 6 7 8
5 6 7 4 5 5 3 1 1 2 4 4 4 4 3 3 3 4 6 6 6 6 5 4 3 7 7 6 4 4 4 4 3 2 1 3 3 3 3 3 2 2 5 6 6 6 5 5 2 3 1 3 2 1 3 1 1 1 1 1 0 3 1 3 4 4 5 5 6 6 7 6 5 5 5 6 6 5 5 5 5 6 6 6 7 7 8
3 5 6 2 1 2 5 2 3 3 6 6 5 4 4 3 3 3 4 4 5 6 4 2 5 6 5 5 5 4 4 3 1 0 0 1 1 1 0 0 2 4 4 7 7 6 5 3 1 2 3 3 3 1 3 3 2 1 1 3 0 0 2 3 3 4 5 5 6 6 6 5 5 5 6 6 5 4 4 5 6 6 6 6 6 6 2
3 2 3 1 1 3 3 1 1 4 6 6 5 5 4 2 2 4 5 5 4 4 3 4 6 5 5 5 5 4 3 2 0 0 1 2 2 2 1 1 3 3 5 7 7 7 7 2 0 2 3 3 3 2 2 4 2 2 2 1 0 0 2 4 5 5 5 6 6 6 5 4 5 5 5 6 5 4 5 4 5 5 5 4 4 4 4
5 2 3 5 4 3 4 5 4 3 4 5 5 4 3 2 2 4 5 4 3 4 7 7 7 6 4 5 4 4 3 1 1 2 4 4 4 4 3 3 4 5 7 7 7 8 1 3 0 1 2 2 3 3 2 3 2 2 3 2 1 3 5 4 4 5 5 7 6 7 5 4 6 6 5 5 4 3 4 3 4 5 4 3 4 4 3
2 1 3 5 4 5 5 3 2 3 4 5 5 4 3 3 4 4 5 5 4 5 7 8 6 6 5 5 4 4 4 4 6 3 4 3 4 4 4 3 4 5 7 6 5 3 2 2 0 1 3 1 2 2 1 2 2 3 3 2 3 4 4 5 5 5 5 6 6 5 5 6 6 5 6 6 6 5 4 3 4 3 4 4 5 5 6
4 1 1 3 6 4 4 3 2 2 1 2 5 5 5 5 5 6 5 4 3 6 6 6 6 6 5 5 5 5 6 6 7 8 7 8 5 4 2 3 4 5 5 6 4 2 1 1 3 5 4 2 2 0 1 2 2 3 2 3 4 5 4 4 4 5 5 5 6 6 5 5 6 7 7 7 7 6 5 5 5 5 4 6 5 6 5
4 5 6 4 3 5 4 1 1 3 1 3 4 5 3 4 6 5 6 4 4 8 8 7 6 6 7 8 7 7 6 6 6 6 6 5 4 3 3 3 4 4 3 4 4 2 0 2 4 6 5 4 2 3 1 5 5 3 3 3 4 4 4 3 3 4 5 5 5 6 6 7 6 6 7 7 7 6 6 6 6 5 6 6 6 6 7
2 4 3 3 2 4 2 0 2 3 2 4 2 2 1 3 3 1 1 2 7 7 8 8 9 8 6 4 4 5 5 4 5 5 4 4 3 3 3 3 5 2 3 6 3 3 0 1 4 4 4 2 4 4 2 8 7 6 2 4 4 5 4 3 3 4 4 5 4 5 5 5 4 5 6 6 6 6 6 6 6 6 5 5 5 6 6
3 4 1 3 2 4 3 1 2 2 1 3 5 3 1 0 2 3 3 4 6 8 9 8 5 4 4 5 5 3 4 5 5 5 4 4 3 4 5 5 6 6 6 3 3 3 2 0 1 3 2 3 3 3 5 6 7 3 1 3 3 5 5 3 3 3 5 4 4 5 5 5 5 5 4 5 5 6 6 7 7 7 7 6 6 6 6
3 4 3 4 3 2 0 2 2 3 2 3 7 5 5 3 3 4 4 4 3 10 8 7 7 6 6 6 5 6 5 6 5 5 5 4 3 3 4 5 7 7 7 8 5 3 2 1 3 2 1 3 3 4 3 4 5 2 1 4 5 5 4 4 3 5 4 4 5 5 4 5 5 5 5 5 5 6 6 6 7 7 7 7 7 7 7
2 0 3 3 2 2 1 1 2 1 1 0 3 4 7 7 6 5 4 3 3 5 9 6 4 6 7 7 7 6 6 6 6 6 5 3 3 4 5 5 5 4 6 6 3 2 2 1 2 1 2 3 4 4 4 5 4 1 1 3 5 6 6 4 4 5 4 5 4 4 4 5 5 6 5 6 5 5 5 6 6 6 6 6 6 6 6
1 1 3 5 2 1 1 0 0 1 2 0 1 1 1 1 2 3 4 4 5 3 6 5 7 5 4 6 6 6 6 6 6 6 6 7 7 6 5 6 3 5 6 5 4 3 0 2 2 1 1 2 2 4 6 4 5 3 2 4 6 6 6 6 5 6 5 3 3 4 4 5 5 5 5 5 6 5 5 6 6 7 7 7 7 6 6
2 1 1 0 2 6 7 4 1 3 4 4 3 3 2 1 2 3 4 1 1 0 1 2 5 5 3 3 6 7 5 6 7 7 6 7 7 6 5 2 2 4 5 2 1 1 1 5 3 1 1 0 1 5 7 5 5 1 4 7 6 6 6 6 6 4 4 5 4 4 5 3 4 4 5 5 5 5 5 6 6 6 6 7 7 7 7
4 3 3 3 2 2 5 4 8 7 5 5 4 5 5 4 2 2 3 4 2 1 1 2 4 4 5 5 5 4 5 7 7 7 7 6 4 4 4 3 4 3 3 1 2 4 5 2 2 2 3 3 4 6 4 4 3 2 4 3 5 7 6 6 5 6 5 4 5 4 4 4 4 3 4 4 6 6 6 5 5 5 6 6 6 6 6
4 4 6 4 5 4 4 2 2 6 5 5 2 2 5 4 4 4 5 4 3 3 4 2 4 5 5 5 5 6 6 7 8 7 6 4 5 6 3 7 5 4 3 4 4 5 3 2 1 1 2 4 5 6 5 4 3 4 5 5 5 5 6 6 5 6 5 5 4 4 4 4 4 4 3 3 4 5 5 5 5 5 6 6 6 6 5
6 5 3 7 7 6 6 7 4 4 3 3 5 8 2 2 4 5 4 4 4 4 4 4 4 4 4 4 5 5 5 3 3 8 9 9 9 6 6 8 5 5 4 6 4 5 3 4 3 1 3 4 4 5 4 5 1 5 5 5 5 7 6 7 6 5 4 5 5 6 6 6 6 5 5 4 4 4 4 4 4 4 6 6 5 5 5
2 2 1 5 4 4 5 5 3 2 2 3 2 0 2 5 5 4 3 4 5 4 5 5 4 3 4 4 5 4 3 3 4 2 6 4 6 7 7 8 7 7 5 5 5 4 3 2 2 1 3 3 4 3 3 3 6 6 6 7 6 5 4 6 7 6 6 6 6 5 5 5 5 5 5 5 5 5 4 5 5 5 5 5 5 6 5
2 3 4 2 4 3 3 3 2 2 3 3 3 3 2 1 3 5 6 6 4 4 3 3 5 5 4 5 4 4 5 6 2 1 2 6 5 6 6 5 5 6 7 6 5 3 4 4 2 1 2 4 3 3 1 5 6 6 6 6 6 6 7 6 4 3 4 5 6 6 6 6 6 6 5 5 5 5 5 5 5 4 4 4 4 4 4
4 4 4 3 4 4 4 4 4 3 5 6 3 4 4 3 2 3 4 3 2 4 5 5 4 4 3 5 5 5 4 3 1 2 5 6 7 6 6 5 7 7 4 4 3 3 3 2 1 2 4 4 3 1 3 5 5 5 5 4 5 5 5 5 5 6 7 6 5 4 5 6 6 6 5 6 5 5 5 5 5 5 5 5 5 5 4
1 1 3 3 1 3 4 4 6 7 6 4 4 5 4 4 3 5 3 2 2 3 2 1 4 3 5 5 3 7 5 3 7 8 7 6 6 6 6 6 4 6 6 4 4 3 4 4 3 3 3 2 2 2 5 5 5 4 4 4 5 4 5 5 6 7 6 6 6 6 6 5 5 5 5 4 5 4 5 4 3 5 6 5 5 4 4
2 3 3 4 5 4 3 3 3 3 2 3 4 5 6 7 6 5 5 4 3 3 3 3 3 4 5 2 6 5 3 6 6 9 8 7 6 7 7 6 5 5 4 2 4 5 4 4 4 3 3 3 1 4 5 5 5 5 5 5 4 4 4 3 3 5 5 5 5 6 5 5 6 6 6 5 4 4 4 4 3 3 3 4 4 4 4
3 3 3 4 2 2 4 5 5 4 4 3 2 3 5 5 4 6 5 4 3 3 2 3 3 3 3 2 1 5 4 3 6 7 8 8 7 7 7 7 6 5 6 4 4 5 4 5 4 5 4 1 3 4 5 6 4 4 4 4 4 3 3 4 4 5 5 7 7 6 6 6 6 6 5 5 5 5 4 3 3 4 4 4 4 4 4
Wind_Direction
136 159 122 109 88 111 111 67 51 52 45 44 53 358 306 286 138 157 137 104 99 87 65 57 70 81 83 89 88 93 101 93 97 99 75 53 51 52 52 49 49 43 39 46 54 63 106 87 70 75 74 79 78 76 82 117 143 140 109 68 70 86 15 96 112 129 152 162 164 186 154 257 99 306 35 44 67 54 62 51 60 59 65 70 49 341 73
245 196 143 139 133 98 26 48 81 81 71 53 45 16 3 41 79 117 114 88 66 34 27 52 66 76 78 73 75 70 68 78 79 76 83 85 79 73 67 59 57 60 57 57 54 48 40 38 37 33 82 106 104 108 116 90 69 63 56 30 76 74 30 47 73 86 63 38 92 144 212 320 319 330 326 70 89 82 78 78 75 81 77 70 75 78 102
261 220 134 118 94 67 64 321 142 95 90 75 60 36 12 49 57 32 66 92 77 13 25 65 58 72 71 64 63 68 74 81 89 85 80 82 80 76 74 69 63 58 50 45 47 46 41 36 35 37 21 10 118 126 121 88 81 107 121 213 117 128 120 50 73 108 129 206 176 177 123 93 326 320 260 193 130 115 114 116 117 109 95 91 96 106 123
314 29 90 87 89 87 65 28 18 46 84 77 35 58 310 104 92 57 63 62 81 75 49 63 45 61 69 71 70 71 72 76 81 85 84 81 80 80 78 74 69 62 55 51 49 46 40 37 35 27 34 37 34 26 54 129 141 155 161 157 125 100 91 77 329 49 60 9 295 208 170 60 36 301 261 154 149 149 131 117 125 87 88 122 116 116 121
337 336 333 104 88 62 34 351 324 338 80 109 86 64 72 116 126 84 89 109 106 73 357 84 47 56 67 70 67 77 77 77 81 82 79 76 73 73 72 70 69 66 64 62 58 53 48 37 33 23 26 41 38 35 26 360 92 97 76 73 99 127 153 171 191 170 148 181 210 213 125 189 203 203 208 130 162 76 159 176 120 131 143 126 135 144 143
285 346 350 12 65 68 24 282 291 264 177 103 88 82 102 116 59 128 124 119 102 96 75 87 83 64 47 42 47 51 78 85 73 67 70 71 74 71 66 63 60 64 65 58 55 55 50 41 34 32 39 38 37 37 40 42 39 53 55 55 55 60 75 81 89 150 170 158 177 172 180 185 181 184 148 172 187 152 114 57 69 17 152 164 181 171 184
336 332 20 45 37 134 268 307 339 42 84 82 92 83 84 100 98 100 102 104 106 93 94 95 90 83 75 49 41 46 56 71 81 82 67 64 69 67 64 60 54 53 54 52 47 38 31 34 32 33 33 28 29 33 32 41 42 45 48 47 40 39 40 38 46 53 52 33 8 359 113 146 144 147 175 146 139 132 131 155 229 258 261 249 213 210 211
81 51 81 111 223 212 329 297 19 1 36 44 63 53 24 63 106 114 108 114 112 110 101 97 108 105 108 85 57 49 49 55 78 83 82 80 72 72 64 65 55 53 49 59 61 48 33 33 36 37 34 27 34 29 27 32 35 40 40 39 33 28 25 24 26 23 19 24 33 43 37 40 33 108 178 172 160 168 175 218 225 241 256 234 250 240 239
129 144 89 118 15 34 6 358 11 11 22 345 347 112 14 42 106 113 118 117 118 117 125 132 132 120 96 75 58 24 56 63 52 74 80 79 82 90 90 93 93 87 78 72 68 64 51 44 40 32 28 35 37 31 29 23 25 33 34 33 28 24 23 17 15 13 11 12 28 32 26 23 30 44 26 354 308 232 183 212 241 261 259 253 226 217 231
118 128 104 94 130 169 307 359 314 343 350 342 328 101 76 73 91 113 122 131 136 134 139 143 153 139 73 64 33 330 22 73 88 70 71 69 73 87 94 90 92 97 97 80 63 64 55 44 40 32 24 27 35 33 28 28 34 33 29 26 18 22 21 14 8 7 10 13 13 11 18 18 10 3 15 73 68 352 292 275 249 234 237 250 253 229 224
52 74 122 148 139 142 251 299 318 313 338 19 336 80 74 98 125 134 130 133 141 146 153 163 180 77 77 102 149 179 157 93 72 83 76 86 80 74 89 90 88 78 72 85 75 59 57 53 38 44 31 26 30 37 28 30 31 31 30 21 14 11 8 6 6 7 11 16 13 5 5 359 359 355 354 342 338 8 293 215 246 256 236 227 248 242 218
2 116 69 99 37 64 303 317 308 337 327 20 39 82 158 102 108 112 115 129 139 153 168 170 135 126 127 148 177 169 172 157 147 141 141 150 131 85 60 62 103 96 72 60 50 46 46 43 34 28 28 35 37 37 38 39 36 29 17 11 5 11 9 10 10 9 9 8 3 2 354 348 344 340 336 340 339 337 333 339 329 310 246 239 235 235 236
90 84 100 101 140 321 312 297 296 295 305 13 65 163 180 72 82 91 107 113 130 147 164 181 100 86 122 137 139 141 157 146 144 147 137 86 66 54 37 31 31 65 60 58 57 54 51 43 37 34 34 41 35 31 37 38 32 14 2 2 9 11 9 9 8 5 2 2 357 352 349 342 332 331 331 325 322 325 322 325 330 323 319 287 244 242 234
62 86 76 92 81 248 253 286 275 328 60 83 145 114 128 103 89 88 96 95 81 78 78 95 101 107 107 109 105 94 82 81 78 77 75 80 76 56 46 33 33 56 62 60 60 59 51 44 42 37 47 49 33 23 29 32 8 343 355 358 3 3 6 3 360 359 357 354 355 355 352 353 352 345 337 332 320 316 313 313 313 308 306 310 308 283 264
27 55 105 99 74 324 310 292 7 6 86 54 69 101 85 94 100 96 87 85 79 77 75 73 84 84 80 83 84 79 73 69 64 60 59 61 66 61 43 26 21 55 68 65 62 56 45 50 44 43 57 56 32 16 30 12 356 358 1 4 7 7 4 357 355 354 351 352 353 354 349 347 348 344 341 339 333 327 314 303 298 300 303 301 300 296 291
111 66 61 121 349 9 3 57 100 11 72 77 83 89 75 50 60 80 91 80 81 83 88 91 89 86 86 79 82 81 74 73 66 58 57 57 61 60 45 30 27 52 61 64 61 45 39 40 37 36 42 43 37 32 18 359 9 7 6 6 13 13 9 5 5 2 0 357 353 346 344 347 346 345 340 337 334 330 325 316 308 297 292 298 298 300 293
84 113 138 83 72 68 40 64 84 72 51 64 79 81 73 73 51 54 75 68 60 67 84 86 88 92 88 93 90 92 92 93 90 86 80 83 84 75 53 25 30 67 73 67 57 54 51 45 40 38 41 44 29 25 0 13 11 13 9 11 17 11 7 4 360 357 354 350 345 347 344 340 336 333 328 332 331 330 334 329 324 315 301 298 299 295 294
74 71 81 94 74 70 68 58 62 64 62 59 65 80 86 70 74 62 76 76 70 62 59 70 61 72 93 95 96 95 94 95 104 103 93 81 87 88 74 35 41 81 71 60 57 59 48 37 36 33 31 43 41 23 18 23 19 14 10 12 13 6 3 357 353 350 346 340 340 339 342 347 345 339 341 340 339 335 337 333 333 335 333 345 346 342 333
100 84 60 86 104 98 83 79 66 63 64 69 76 79 80 89 81 76 71 80 92 94 85 80 80 64 60 74 86 103 112 112 109 103 106 108 101 99 105 44 45 72 67 55 51 61 60 33 26 17 34 37 45 36 32 27 23 15 12 10 5 0 357 350 347 344 343 340 341 345 350 350 350 351 350 349 348 350 352 350 348 346 344 340 334 336 331
83 128 117 94 88 98 98 92 86 77 71 67 66 78 80 79 69 68 68 68 74 85 93 102 102 97 96 114 126 97 97 98 92 92 108 122 121 119 85 69 75 66 57 47 44 63 61 20 358 19 43 43 43 43 37 31 24 15 6 357 358 350 346 342 333 342 354 353 351 343 345 350 351 348 345 341 340 341 348 347 343 335 334 330 326 320 313
84 89 106 118 94 73 77 87 90 101 107 105 92 83 82 77 74 68 57 57 71 76 96 92 80 70 45 36 75 103 84 79 78 104 148 140 128 119 98 90 85 86 68 49 40 54 45 7 14 39 36 38 48 54 47 44 49 35 4 356 348 343 336 336 336 358 354 345 335 336 338 341 334 328 326 326 322 322 323 330 320 327 323 320 314 309 301
128 165 153 149 123 124 103 110 131 128 119 111 107 102 92 91 90 82 80 62 54 63 65 96 98 87 55 42 54 80 80 69 64 12 34 105 110 107 119 116 119 116 114 101 80 52 36 6 31 54 17 60 77 78 64 57 60 50 19 356 346 335 329 332 332 341 337 332 330 333 327 319 318 313 304 297 294 300 312 314 315 313 281 292 294 302 302
160 129 143 174 123 122 137 147 132 125 143 139 136 125 125 131 128 126 118 112 95 95 85 85 91 95 94 63 57 64 60 64 20 33 42 28 78 111 111 109 107 112 126 112 97 90 71 19 15 335 304 70 62 58 55 44 55 41 359 337 320 309 313 313 322 328 334 337 334 325 320 317 314 311 310 309 300 301 295 297 305 317 323 319 317 303 283
113 174 73 112 124 144 162 155 135 124 104 87 80 97 126 135 138 138 133 136 133 102 89 91 104 108 97 84 67 53 44 40 37 17 1 4 338 98 102 94 82 71 53 52 63 67 32 39 301 289 51 93 91 76 85 95 95 25 298 300 296 291 296 308 327 335 329 321 319 320 313 309 305 306 308 309 312 305 307 307 308 310 314 319 325 326 315
100 87 101 110 106 105 101 106 96 91 98 102 91 81 76 65 68 90 89 95 113 130 127 102 70 75 81 63 57 48 54 51 32 19 357 339 317 21 92 80 80 76 41 28 4 352 325 330 302 324 82 115 108 120 138 177 198 213 230 244 258 276 306 322 327 325 324 317 311 307 305 304 301 296 296 300 302 308 312 306 302 305 309 316 321 323 329
114 118 117 106 111 118 118 97 89 111 116 104 104 92 81 75 73 83 87 83 63 71 86 100 100 81 88 87 67 54 45 5 344 347 348 311 302 10 94 102 94 73 30 354 328 309 307 290 287 311 152 164 151 176 136 335 298 245 244 244 261 286 326 323 321 321 316 310 310 310 309 304 300 302 305 305 303 304 307 310 313 301 278 304 315 329 330
104 114 122 118 85 63 93 113 105 84 97 117 119 128 129 124 111 113 121 113 110 111 114 106 104 115 109 115 112 105 107 277 347 8 359 16 32 56 69 68 63 47 7 331 308 296 291 289 286 205 145 159 172 130 74 26 336 311 298 318 28 28 311 335 353 341 329 323 323 324 328 328 327 321 314 312 310 306 301 302 302 306 313 321 331 333 320
58 60 75 78 72 75 93 115 129 121 114 129 130 129 145 146 141 151 147 135 109 78 83 85 93 102 112 113 110 132 123 25 24 12 38 22 8 27 41 49 48 35 349 332 303 308 301 312 343 75 125 142 127 76 52 20 11 16 16 39 36 3 351 31 2 339 322 322 316 310 309 311 311 307 305 311 313 308 303 295 293 303 312 318 317 316 311
64 66 76 101 119 104 87 73 77 109 134 117 114 145 147 148 133 112 103 137 126 111 93 84 72 82 107 149 146 141 136 117 86 15 359 5 359 8 38 48 36 13 334 300 289 297 311 327 325 53 53 31 86 68 48 37 71 67 49 113 74 37 63 26 334 307 295 288 285 286 286 289 290 295 296 296 293 299 308 307 310 307 301 312 317 311 305
85 73 81 95 101 123 129 152 140 187 151 100 78 63 73 132 127 156 124 112 101 95 108 104 82 79 113 69 68 93 102 107 105 64 25 350 10 31 38 39 39 10 348 330 321 318 324 307 321 73 35 19 72 77 44 64 169 194 209 87 75 109 112 1 321 297 292 291 285 287 288 286 286 285 290 293 296 301 298 298 294 296 296 294 293 285 297
63 81 71 53 35 8 341 144 125 111 112 110 105 85 27 28 101 107 107 116 104 110 105 102 115 92 93 106 96 86 86 88 86 68 346 5 50 28 33 57 65 297 280 282 294 305 304 308 331 90 24 30 38 49 19 353 245 272 107 122 183 152 145 338 301 288 294 295 297 301 299 289 279 286 289 288 290 288 286 286 289 290 288 285 286 281 273
113 96 97 104 153 226 257 185 204 152 129 114 98 102 88 67 34 86 116 102 115 106 103 120 99 117 120 116 112 105 108 113 111 77 351 91 97 15 61 126 188 228 254 268 275 280 280 300 33 25 11 23 23 14 5 326 300 21 114 158 167 351 321 306 304 308 306 301 304 305 297 297 305 298 284 284 280 281 292 295 294 290 291 297 299 303 343
142 171 172 155 307 260 274 221 121 112 107 110 119 117 110 112 97 103 109 111 110 130 138 117 123 122 124 123 121 121 127 124 116 95 277 282 286 272 260 239 245 254 263 262 263 267 271 237 208 23 25 10 4 335 5 347 11 93 78 100 156 244 319 351 345 330 326 325 319 314 302 301 289 287 288 290 290 288 291 295 303 325 338 341 339 326 336
168 153 153 171 197 118 72 23 32 111 124 127 129 122 123 157 163 133 128 115 125 113 123 138 151 149 137 126 131 131 126 108 233 251 252 245 255 275 289 274 258 259 257 261 269 265 200 160 141 47 27 353 343 318 354 9 3 74 61 91 38 29 28 17 350 349 334 328 325 327 327 324 330 327 315 309 301 289 298 330 2 355 347 333 323 329 332
139 180 153 152 117 99 74 75 89 91 131 127 129 136 168 207 170 145 139 151 183 162 161 149 144 135 128 129 138 156 160 187 205 196 227 228 237 248 255 276 281 276 274 277 266 268 140 146 149 53 1 346 327 299 14 350 3 50 44 94 52 47 39 22 1 347 329 324 333 349 345 7 7 357 360 8 14 19 24 28 11 357 345 356 6 11 38
136 137 44 113 110 98 100 62 25 99 85 168 171 164 189 208 154 135 152 181 185 136 136 136 140 133 134 158 170 190 196 217 215 219 230 233 237 235 239 253 273 284 298 311 290 291 132 140 14 18 336 343 283 208 40 1 33 38 58 97 71 61 39 31 1 339 338 350 356 7 2 5 12 13 10 11 14 19 24 21 8 2 354 356 7 28 43
75 69 21 20 86 102 99 90 48 34 318 152 169 167 139 111 143 177 181 196 151 143 156 146 137 152 184 201 201 193 196 199 199 198 215 223 219 208 228 252 263 271 308 304 269 281 211 56 4 350 330 297 177 137 97 54 39 24 95 107 95 85 73 28 0 358 349 357 10 9 13 36 29 14 16 17 20 19 21 20 13 7 360 9 35 50 53
186 76 58 324 111 111 138 195 103 47 108 139 99 82 96 138 104 67 270 196 153 157 152 157 175 188 189 188 181 186 210 206 204 201 190 193 187 194 246 233 254 240 248 242 248 301 287 353 350 356 311 332 131 157 86 45 52 39 70 119 120 105 90 71 28 5 2 4 16 20 30 41 36 26 21 19 22 25 19 17 15 19 26 41 55 53 56
66 93 81 289 100 86 50 18 128 179 208 154 136 135 128 128 159 211 249 252 164 159 159 182 168 157 180 184 203 200 207 213 206 196 205 215 212 197 223 227 224 219 221 244 257 260 227 223 27 338 306 5 40 77 51 35 15 48 49 154 131 119 103 92 46 22 11 11 24 27 30 30 35 30 30 28 24 20 22 22 24 29 41 45 46 49 55
46 36 302 243 154 115 135 248 165 164 218 155 149 168 164 193 227 242 251 252 161 157 179 177 167 179 197 204 200 202 204 201 193 191 201 212 209 236 272 279 259 246 245 250 244 255 242 30 18 339 335 22 49 40 353 14 350 342 348 161 145 136 125 127 93 55 31 29 31 29 39 39 35 28 26 23 27 28 30 25 28 30 43 56 61 60 60
29 214 264 329 329 102 275 336 16 16 94 198 182 179 175 191 209 219 237 238 266 165 166 167 168 181 186 199 203 192 181 184 181 194 191 173 198 218 234 263 260 234 212 210 228 218 193 104 77 39 353 22 34 17 335 334 328 284 282 171 149 140 132 131 117 99 72 47 36 49 48 45 36 31 32 34 28 28 34 36 36 39 42 52 58 60 64
357 93 19 325 336 297 220 168 164 339 337 57 100 67 42 154 157 205 218 225 250 170 164 182 178 177 148 126 145 158 170 183 186 190 187 187 196 194 214 252 236 178 170 196 242 270 254 138 114 67 12 17 355 323 319 310 290 252 200 166 158 146 141 138 124 114 100 71 62 68 65 67 56 42 37 45 48 41 36 41 47 50 50 53 56 55 59
252 232 190 66 5 351 347 327 282 217 231 231 200 186 202 260 277 289 296 285 129 181 237 169 181 161 143 136 137 159 182 185 187 197 205 217 203 194 195 220 179 175 180 229 264 356 129 143 150 154 254 218 3 318 321 307 298 322 144 161 156 145 141 131 128 126 117 112 81 64 71 68 82 74 55 52 64 62 56 53 60 57 57 59 61 61 60
220 208 181 142 136 228 267 334 339 334 316 275 218 182 185 197 205 247 275 272 252 217 255 171 192 182 171 166 168 199 178 181 198 195 196 216 248 239 202 181 183 175 193 232 78 106 118 128 148 220 216 44 8 334 310 290 292 85 94 99 126 136 137 129 121 115 111 104 98 89 84 89 84 81 72 65 66 71 75 75 71 71 71 67 66 66 63
233 191 188 167 162 157 134 94 312 304 310 319 306 177 180 186 200 204 231 247 239 227 236 235 177 184 183 189 181 190 206 184 189 181 170 200 218 251 228 156 160 171 164 121 111 119 128 144 206 190 55 37 347 330 313 308 342 54 77 84 78 88 115 125 127 119 121 116 105 90 80 72 72 75 68 64 68 85 93 94 87 80 79 81 81 79 72
357 336 171 173 176 174 167 165 186 257 275 49 2 333 306 207 195 207 212 221 226 247 242 238 224 186 166 174 191 194 214 216 167 165 190 186 190 205 163 150 166 166 149 126 117 133 168 180 188 103 26 24 341 323 320 313 20 80 63 61 79 96 101 102 108 128 138 135 123 104 92 89 85 82 81 79 76 74 70 71 75 77 83 84 79 77 76
242 291 270 206 197 161 168 172 171 183 199 149 153 201 342 7 354 338 282 227 224 231 229 242 249 232 193 177 168 171 186 221 261 146 126 101 106 115 136 141 143 140 121 110 125 157 182 196 186 54 31 337 322 312 306 28 57 57 65 63 51 51 87 117 123 119 117 126 125 122 116 102 86 74 63 58 63 65 70 81 89 94 99 98 99 98 95
252 266 285 160 157 185 180 182 190 237 253 214 176 175 194 90 15 324 310 295 257 234 241 224 212 222 212 185 175 165 172 170 216 270 144 132 132 124 127 132 140 127 125 130 144 181 166 162 144 12 328 312 324 306 42 83 76 76 73 72 72 69 70 65 65 90 110 113 117 116 110 99 99 94 83 79 76 76 74 72 70 72 73 78 77 79 85
251 258 272 223 175 176 176 182 182 206 250 256 202 179 169 154 175 248 298 319 14 27 11 350 324 295 248 188 174 179 204 178 138 178 188 151 145 150 150 154 155 152 148 149 166 206 192 164 234 250 286 304 305 295 112 97 94 90 91 94 97 97 90 90 93 92 86 84 89 106 120 125 120 112 105 100 87 77 72 72 73 75 76 81 83 80 79
274 20 330 315 272 216 202 193 197 209 221 222 221 206 186 175 198 244 213 192 160 128 105 305 292 297 332 321 254 179 184 152 123 131 146 152 145 144 149 151 165 178 179 169 178 212 209 197 229 261 259 273 277 157 118 116 119 119 120 121 113 107 109 108 103 99 102 103 97 94 97 108 121 120 116 103 94 85 85 89 95 92 88 85 87 88 89
261 235 254 245 233 215 183 180 197 197 196 211 201 185 171 167 192 220 235 222 176 153 160 201 233 263 285 349 330 288 204 152 145 128 136 146 147 150 156 158 161 173 193 198 181 199 195 189 210 230 244 259 218 129 130 140 145 146 150 144 146 142 143 126 123 132 131 124 124 121 120 112 112 116 120 120 117 112 114 112 107 99 101 99 97 93 93
264 245 239 248 228 203 203 208 216 202 201 179 163 154 173 193 206 227 238 213 197 187 149 84 24 304 216 174 277 305 287 184 147 140 138 145 148 155 158 157 161 174 192 209 208 192 196 195 201 219 205 160 163 136 132 129 134 134 145 146 148 132 135 147 144 137 139 141 140 139 140 138 134 131 137 140 145 152 161 153 133 113 104 100 100 100 101